Location: Joux
(45.8000°N, 2.0000°E)
Time: 15:18:17
(UTC+00:00)

Daily predictions for brighter satellites

Satellite Brightness Start Highest point End
(mag) Time Altitude Azimuth Time Altitude Azimuth Time Altitude Azimuth
Cosmos 1656 4.3 19:57:31 10° SW 20:03:01 62° WNW 20:08:29 10° NNE
Cosmos 1743 3.2 20:02:19 10° N 20:05:56 41° ENE 20:09:31 10° SSE
Ariane Rocket 3.4 20:01:15 10° SE 20:06:08 51° ENE 20:11:04 10° N
BREEZE-M DEB (TANK) 2.7 20:07:12 10° W 20:10:29 55° NNW 20:12:37 10° ENE
SPOT 5 4.4 20:07:17 10° ESE 20:11:27 24° ENE 20:15:31 10° N
IRAS Rocket 4.4 20:07:01 10° NNE 20:12:33 55° ESE 20:18:03 10° S
Terra 3.7 20:10:17 10° E 20:13:13 16° ENE 20:16:08 10° NNE
Resurs 01 Rocket 1.6 20:10:26 10° SSE 20:14:49 75° ENE 20:19:14 10° N
Aureole 1 Rocket 2.2 20:13:00 10° S 20:16:10 56° ESE 20:19:06 10° NNE
Cosmos 1515 Rocket 3.6 20:12:46 10° S 20:17:03 61° E 20:21:25 10° NNE
Cosmos 2227 Rocket 2.7 20:14:32 10° NNW 20:20:08 62° WSW 20:25:42 10° S
Landsat 7 4.2 20:15:39 10° S 20:20:19 64° W 20:25:01 10° NNW
Cosmos 921 Rocket 3.5 20:17:02 10° N 20:21:26 49° ENE 20:25:38 11° SE
PSLV R/B 3.9 20:18:56 10° NNE 20:23:00 86° WNW 20:27:01 10° SSW
Cosmos 1980 Rocket 2.3 20:23:25 10° S 20:28:53 55° ESE 20:34:24 10° NE
CARTOSAT-1 3.9 20:26:14 11° SSE 20:30:18 51° ENE 20:34:30 10° N
Cosmos 1869 Rocket 4.4 20:26:52 10° N 20:31:01 35° ENE 20:34:33 13° SE
Cosmos 2228 Rocket 4.1 20:29:01 11° SSE 20:32:51 30° E 20:36:48 10° NNE
Cosmos 1464 Rocket 4.0 20:27:37 10° S 20:33:48 76° E 20:39:58 10° NNE
ARGOS Delta rocket 4.2 20:31:18 10° N 20:36:50 88° WNW 20:42:14 10° SSW
Cosmos 2344 3.5 20:29:25 10° SSW 20:36:55 70° ESE 20:44:28 10° NE
Cosmos 2322 Rocket 4.0 20:36:17 11° ESE 20:38:01 12° E 20:40:10 10° ENE
ISS -2.9 20:34:56 10° NW 20:38:11 46° NNE 20:41:26 10° E
Cosmos 2369 3.7 20:32:55 10° SSW 20:38:32 75° ESE 20:44:12 10° NNE
Cosmos 1354 Rocket 4.1 20:34:18 10° S 20:39:26 58° ESE 20:44:39 10° NNE
Spot 2 Rocket 4.1 20:35:42 13° SE 20:39:52 41° ENE 20:44:35 10° N
SPOT 3 Rocket 3.6 20:36:10 11° SSE 20:40:59 66° ENE 20:46:06 10° N
Cosmos 773 Rocket 4.2 20:35:56 10° NNW 20:41:06 57° ENE 20:45:19 15° SE
Cosmos 1536 3.3 20:37:35 10° NNW 20:41:34 62° W 20:45:32 10° S
ATLAS 2AS CENTAUR R/B 3.1 20:34:04 10° SSW 20:41:36 54° ESE 20:48:57 10° NE
Okean 1 3.5 20:40:12 10° S 20:44:04 51° E 20:47:58 10° NNE
Meteor 1-19 Rocket 4.3 20:40:51 10° S 20:46:08 55° E 20:51:24 10° NNE
NOSS 3-4 (A) 4.1 20:40:50 10° WSW 20:46:26 56° NW 20:52:35 10° NE
NOSS 3-4 (C) 4.1 20:40:51 10° SW 20:46:30 57° NW 20:52:39 10° NE
H-2A R/B 3.5 20:42:44 10° N 20:46:32 38° WNW 20:50:21 10° SW
Cosmos 1092 Rocket 4.5 20:41:26 10° N 20:47:21 45° ENE 20:52:05 16° SE
RESURS DK-1 2.7 20:43:51 10° S 20:47:45 43° ESE 20:51:40 10° NE
Cosmos 1697 Rocket 3.4 20:42:12 10° SW 20:47:46 58° WNW 20:53:23 10° NNE
Nadezhda 4 Rocket 4.0 20:42:01 10° N 20:48:16 78° E 20:54:08 11° SSE
SL-4 R/B 3.1 20:44:58 10° WNW 20:49:09 36° SW 20:52:09 16° SSE
Meteor 2-14 Rocket 4.5 20:45:08 10° N 20:51:13 70° E 20:56:34 14° SSE
ATLAS CENTAUR R/B 4.2 20:53:29 10° N 20:56:04 14° NNE 20:58:37 10° ENE
ARIANE 5 R/B 3.8 20:53:39 16° ESE 20:56:28 30° ENE 21:00:23 10° N
Cosmos 2297 Rocket 4.3 20:52:19 10° NW 20:56:29 22° W 21:00:39 10° SSW
MetOp-B 4.3 20:52:35 10° S 20:57:51 73° WSW 21:03:13 10° NNW
Cosmos 44 Rocket 3.8 20:53:32 10° NNW 20:58:06 47° NE 21:01:28 17° ESE
Cosmos 1184 Rocket 4.0 21:00:37 10° SW 21:03:26 37° WNW 21:06:18 10° N
Cosmos 158 Rocket 4.3 21:00:54 10° NNW 21:05:56 55° ENE 21:09:24 20° SE
ATLAS 3B R/B 3.5 20:59:56 10° NNW 21:07:03 51° NE 21:13:24 14° ESE
Meteor 2-9 Rocket 4.2 21:01:44 10° N 21:07:33 90° W 21:12:06 16° S
NOSS 2-1 (E) 4.0 21:08:10 24° ESE 21:08:10 24° ESE 21:10:36 10° ENE
Cosmos 1975 3.2 21:07:30 10° N 21:11:28 50° ENE 21:13:33 25° SE
Timation 2 Rocket 4.4 21:05:12 10° NNW 21:11:44 68° WSW 21:17:06 17° SSE
Cosmos 2026 Rocket 4.1 21:06:35 10° N 21:12:41 60° ENE 21:17:00 20° SSE
Cosmos 389 Rocket 4.3 21:09:43 10° NNW 21:12:46 28° W 21:15:48 10° SSW
ERS-1 Rocket 3.0 21:12:32 21° SSE 21:15:57 73° ENE 21:21:00 10° N
SL-16 R/B 2.8 21:13:28 20° SSE 21:16:45 36° ESE 21:21:53 10° NE
CZ-4B R/B 4.1 21:14:49 10° NNW 21:17:07 18° WNW 21:19:23 10° WSW
Meteor 1-4 Rocket 4.4 21:16:15 10° NNE 21:18:37 17° ENE 21:19:36 15° E
Cosmos 1538 Rocket 4.4 21:16:09 10° NNW 21:21:19 53° ENE 21:24:18 24° SE
Helios 1A Rocket 3.0 21:19:01 21° S 21:21:35 68° WSW 21:25:35 10° NNW
GENESIS II 4.4 21:20:46 21° S 21:22:58 46° ESE 21:26:44 10° NE
CZ-2C R/B 3.8 21:19:38 10° NNE 21:24:24 69° ESE 21:27:47 19° S
Cosmos 1733 Rocket 3.6 21:21:28 10° N 21:25:45 45° ENE 21:27:44 27° SE
OE (NEXTSAT) 4.1 21:26:36 10° W 21:29:55 88° S 21:32:07 19° E
SJ 16-02 2.0 21:27:16 10° SW 21:31:32 54° WNW 21:35:52 10° NNE
Meteor 1-18 Rocket 4.2 21:26:49 13° S 21:31:56 89° E 21:37:36 10° N
SAR-Lupe-4 4.4 21:29:37 10° NNE 21:32:54 32° E 21:33:21 31° ESE
Cosmos 1627 Rocket 4.5 21:27:35 10° N 21:33:51 87° E 21:38:05 22° S
Cosmos 2278 3.9 21:31:37 10° SSW 21:37:15 73° WNW 21:42:58 10° NNE
Cosmos 2292 Rocket 2.8 21:34:25 10° NNW 21:37:24 64° W 21:38:15 40° SSW
ASTRO F (AKARI) 4.3 21:37:45 40° S 21:38:40 67° WSW 21:41:49 10° NNW
Cosmos 1862 Rocket 3.9 21:37:31 32° SSE 21:39:13 49° E 21:43:33 10° NNE
Cosmos 2360 Rocket 3.2 21:40:42 24° ESE 21:41:57 27° ESE 21:46:34 10° NE
BREEZE M DEB (TANK) 4.2 21:37:51 10° WNW 21:42:23 66° SSW 21:55:47 16° SE
Cosmos 1726 4.2 21:42:11 10° NNE 21:44:27 15° ENE 21:45:09 15° E
Meteor 2-15 4.4 21:41:00 22° S 21:45:02 75° E 21:51:06 10° NNE
Cosmos 2263 Rocket 2.6 21:40:36 10° NW 21:46:02 54° WSW 21:49:11 24° S
NOSS 2-1 (C) 2.6 21:46:44 29° SSW 21:48:15 82° SE 21:51:28 10° NE
SPOT 5 3.6 21:45:43 20° S 21:49:11 52° W 21:54:14 10° NNW
Terra 2.0 21:47:56 28° S 21:50:25 69° WSW 21:55:11 10° NNW
Cosmos 482 Debris 4.5 21:48:12 10° WNW 21:51:20 51° SSW 21:52:24 40° SSE
Cosmos 1441 Rocket 3.4 21:51:04 43° SE 21:51:37 48° E 21:55:13 10° NNE
Resurs 01 Rocket 4.3 21:50:16 10° WSW 21:51:50 12° W 21:53:25 10° WNW
Cosmos 1346 Rocket 2.8 21:50:23 30° SSW 21:52:16 82° W 21:56:19 10° N
SAR-Lupe-1 4.0 21:50:25 10° NNE 21:54:00 69° ESE 21:54:47 50° SSE
Cosmos 2279 Rocket 3.9 21:53:29 27° S 21:57:03 72° E 22:03:16 10° NNE
NOSS 2-1 (D) 2.8 21:56:58 25° SW 21:58:43 76° NW 22:01:56 10° NE
Cosmos 990 Rocket 4.2 21:57:54 34° SSE 21:59:51 52° ESE 22:04:57 10° NNE
Cosmos 1680 Rocket 4.3 21:56:02 10° N 22:01:02 40° ENE 22:03:26 26° ESE
USA 215 3.8 21:55:39 10° ENE 22:01:35 36° SE 22:03:42 29° SSE
Iridium 2 3.6 21:59:55 10° N 22:03:40 74° E 22:04:23 55° SSE
Cosmos 1066 Rocket 4.3 22:05:06 33° SSE 22:07:41 65° E 22:13:18 10° NNE
Cosmos 1818 4.4 22:03:49 10° NNW 22:09:02 43° NE 22:12:08 22° ESE
Iridium 4 Rocket 4.0 22:08:09 10° NNE 22:12:29 39° E 22:13:44 33° ESE
Cosmos 1980 Rocket 4.2 22:08:26 10° WSW 22:13:13 28° NW 22:18:04 10° N
Cosmos 1898 Rocket 3.9 22:11:50 38° SE 22:13:13 46° ESE 22:18:19 10° NNE
SL-24 R/B - RUBIN 2 4.2 22:10:09 10° NW 22:14:22 46° WSW 22:15:32 37° SSW
ISS -2.7 22:11:48 10° WNW 22:14:21 34° WSW 22:14:21 34° WSW
Okean 1-7 3.4 22:17:25 42° ESE 22:18:03 45° E 22:22:14 10° NNE
Iridium 51 4.1 22:21:01 59° E 22:21:01 59° E 22:24:30 10° N
Cosmos 2322 Rocket 2.1 22:18:02 28° SSW 22:21:07 83° ESE 22:26:46 10° NNE
Cosmos 2180 Rocket 4.4 22:21:19 32° S 22:24:21 87° E 22:30:32 10° N
Okean 3 4.0 22:25:02 39° ESE 22:25:20 40° E 22:29:20 10° NNE
Cosmos 1844 Rocket 2.7 22:20:12 10° NNW 22:25:48 71° ENE 22:27:57 38° SE
Cosmos 2333 Rocket 2.9 22:25:18 32° ESE 22:26:06 34° ESE 22:31:08 10° NE
Cosmos 1805 3.2 22:24:01 10° NNW 22:27:55 77° W 22:28:28 62° SSW
BREEZE-M DEB (TANK) 2.5 22:29:13 10° WNW 22:31:51 53° SSW 22:31:52 53° SSW
H-2A R/B 4.5 22:28:48 10° NNE 22:32:20 31° E 22:32:20 31° E
ATLAS 2AS CENTAUR R/B 4.0 22:25:21 10° WSW 22:32:47 47° NW 22:39:59 10° NNE
ARIANE 5 R/B 4.0 22:31:11 24° SW 22:32:51 31° W 22:36:51 10° NNW
Meteor 1-23 Rocket 4.5 22:34:01 40° SSE 22:35:50 56° E 22:41:32 10° NNE
ATLAS CENTAUR R/B 2.4 22:31:17 10° NNW 22:36:02 49° NE 22:37:49 32° ESE
USA 267 4.0 22:31:09 10° E 22:37:24 50° NNE 22:43:40 10° NW
Cosmos 1733 3.6 22:37:19 10° NNW 22:41:00 51° W 22:41:23 48° WSW
Cosmos 1766 3.1 22:39:09 10° N 22:43:06 82° E 22:43:23 75° SE
Cosmos 2219 Rocket 2.8 22:44:47 35° ESE 22:45:26 36° ESE 22:50:30 10° NE
Cosmos 1703 Rocket 3.5 22:48:16 61° S 22:49:03 90° NNW 22:53:30 10° N
Cosmos 1844 3.7 22:43:42 10° NNW 22:49:33 90° ENE 22:51:27 45° SSE
Cosmos 372 Rocket 4.1 22:51:17 47° SE 22:52:02 51° ESE 22:57:02 10° NNE
Meteor 1-4 Rocket 3.8 22:50:25 10° NNW 22:53:31 30° W 22:53:35 30° W
ATLAS 3B R/B 3.4 22:50:50 10° NW 22:57:51 47° WSW 23:00:39 34° SSW
Cosmos 1707 3.8 23:00:36 33° E 23:00:36 33° E 23:03:47 10° NNE
SL-16 R/B 3.4 22:55:31 10° WSW 23:00:48 39° NW 23:06:08 10° NNE
Cosmos 1655 Rocket 4.1 22:55:40 10° NNW 23:01:52 70° W 23:04:10 40° SSW
Cosmos 1782 Rocket 3.4 22:59:58 10° N 23:04:21 88° W 23:04:50 71° S
ERS-2 2.7 23:03:54 10° NNE 23:06:52 45° ENE 23:06:52 45° ENE
CZ-4C R/B 3.4 23:01:05 10° NW 23:08:07 60° NE 23:14:17 19° ESE
NOSS 3-1 (C) 4.1 23:01:27 10° NW 23:08:54 79° NE 23:14:02 28° SE
Gblst 52 Del rocket 4.4 23:07:21 10° WSW 23:13:52 80° NNW 23:19:38 10° ENE
Cosmos 1908 Rocket 4.5 23:11:11 10° NNW 23:15:09 36° W 23:15:46 34° WSW
Cosmos 2237 Rocket 4.0 23:14:56 17° ESE 23:15:26 17° E 23:18:56 10° ENE
COSMOS 2428 3.0 23:17:54 44° SE 23:18:45 48° ESE 23:24:11 10° NE
Cosmos 1470 2.7 23:15:15 10° N 23:19:01 81° NE 23:19:01 81° NE
Cosmos 1726 3.1 23:16:11 10° NNW 23:19:26 38° W 23:19:26 38° W
Cosmos 1300 Rocket 3.4 23:16:08 10° N 23:20:30 74° E 23:20:51 69° ESE
Cosmos 2242 Rocket 4.1 23:21:24 46° WSW 23:22:19 55° WNW 23:26:48 10° N
ALOS 2 2.4 23:22:00 72° S 23:22:24 83° WSW 23:26:50 10° NNW
Cosmos 1937 Rocket 3.8 23:22:47 38° SW 23:24:40 61° WNW 23:29:55 10° NNE
Cosmos 2360 Rocket 2.9 23:22:24 24° WSW 23:25:37 51° WNW 23:31:08 10° NNE
Cosmos 1242 Rocket 3.3 23:22:54 10° N 23:26:07 44° ENE 23:26:07 44° ENE
Okean 2 Rocket 3.7 23:23:02 10° N 23:27:25 46° ENE 23:28:05 43° ESE
Cosmos 405 Rocket 4.4 23:28:20 22° E 23:28:20 22° E 23:30:52 10° NE
In-Cosmos 22 4.3 23:29:31 49° SSE 23:30:44 63° E 23:36:10 10° NNE
Cosmos 2333 4.2 23:29:01 40° SW 23:31:03 74° WNW 23:36:43 10° NNE
Cosmos 1437 Rocket 4.5 23:30:08 10° NNE 23:33:08 22° ENE 23:33:33 22° E
Cosmos 1867 3.6 23:33:44 55° SSE 23:34:31 61° ESE 23:39:56 10° NE
Cosmos 1908 4.2 23:31:14 10° N 23:34:47 37° ENE 23:34:48 37° ENE
Meteor 1-21 4.3 23:34:35 50° SSE 23:36:06 75° E 23:41:55 10° NNE
Cosmos 1626 3.1 23:37:36 39° ENE 23:37:36 39° ENE 23:40:34 10° NNE
Cosmos 1842 4.1 23:38:57 39° W 23:39:10 40° WNW 23:42:51 10° N
Cosmos 1953 3.7 23:40:44 10° NNE 23:44:13 28° ENE 23:44:46 27° E
USA 215 3.3 23:38:23 10° NE 23:44:57 77° NNW 23:51:00 13° WSW
Cosmos 2278 Rocket 3.0 23:40:26 10° NNW 23:45:55 46° ENE 23:48:51 25° ESE
Cosmos 1674 2.8 23:50:45 68° NE 23:50:45 68° NE 23:54:09 10° NNE
Cosmos 1818 4.3 23:47:36 10° NW 23:52:32 36° WSW 23:52:45 35° WSW
Sich 1 Rocket 3.4 23:49:20 10° NNW 23:53:44 75° W 23:54:00 72° SW
ADEOS Rocket 2.8 23:52:27 50° SSW 23:53:54 71° WSW 23:59:54 10° NNW
